User: anonymous   Login
Location: Fort Wayne
(41.1310°N, 85.1290°W)
Time: 08:54:08
(UTC-04:00)
Language:

BREEZE-M DEB (TANK) - Orbit

View from above orbital plane
View from above orbital plane
View from above satellite
View from above satellite

Ground track
Ground track

The orbit data is extracted from the following two-line orbital elements,

1 27821U 03024B   14302.73011130  .00006730  00000-0  82846-3 0  5178
2 27821 049.5851 048.1043 5003351 025.0710 057.9275 05.63719855225560
Epoch (UTC): 29 October 2014 17:31:21
Eccentricity: 0.5003351
inclination: 49.5851°
perigee height: 285 km
apogee height: 13630 km
right ascension of ascending node: 48.1043°
argument of perigee: 25.0710°
revolutions per day: 5.63719855
mean anomaly at epoch: 57.9275°
orbit number at epoch: 22556

The dashed part of the orbit path shows where the satellite is in the earth's shadow,  

DLR